Regional Weather Roundup
Issued by NWS

Home | Current Version | Previous Version | Text Only | Print | Product List | Glossary Off
Versions: 1 2 3 4 5 6 7 8 9 10 11 12 13 14 15 16 17 18 19 20 21 22 23 24 25 26 27 28 29 30 31 32 33 34 35 36 37 38 39 40 41 42 43 44 45 46 47 48 49 50

392
ASUS44 KLIX 260305
RWRLA
LOUISIANA WEATHER ROUNDUP
NATIONAL WEATHER SERVICE NEW ORLEANS LA
900 PM CST TUE NOV 25 2014

NOTE: "FAIR" INDICATES FEW OR NO CLOUDS BELOW 12,000 FEET WITH NO
      SIGNIFICANT WEATHER AND/OR OBSTRUCTIONS TO VISIBILITY.
      SKY/WX - SKY CONDITION AND SIGNIFICANT WEATHER.
      TMP - AIR TEMPERATURE.    DP   - DEWPOINT TEMPERATURE.
      RH  - RELATIVE HUMIDITY.  PRES - PRESSURE.
      HX  - HEAT INDEX.         WCI  - WIND CHILL INDEX.

*  THESE STATIONS ARE NOT NWS OR FAA STATIONS AND ARE NOT UNDER
   NWS QUALITY CONTROL.

LAZ040-048-061>063-065-066-069-260400-
SOUTHEAST LOUISIANA

CITY           SKY/WX    TMP DP  RH WIND       PRES   REMARKS
N.O. AUDUBON   NOT AVBL
N.O. INTL ARPT PTCLDY    50  30  46 N9        30.22F
N.O. LAKEFRONT MOCLDY    52  35  52 NW18      30.22S
N.O. DOWNTOWN* FAIR      52  30  43 N5        30.22S
SLIDELL        CLOUDY    48  32  53 NW5       30.20F
BATON ROUGE    CLEAR     43  33  68 NW5       30.25R
BOOTHVILLE     CLOUDY    54  36  50 NW21G26   30.20R
BELLE CHASSE   MOCLDY    52  30  43 N6        30.21R
BOGALUSA*        N/A     46  32  58 NW5       30.22F
NEW ROADS*     FAIR      38  36  92 CALM      30.25F
GONZALES*      FAIR      42  34  74 NW5       30.24R
HAMMOND*       PTCLDY    39  34  81 CALM      30.25R
HOUMA*         CLEAR     45  34  66 NW3       30.24R
PORT FOURCHON* CLEAR     52  34  50 N14G21    30.24S

$$

LAZ041-044-053-054-260400-
SOUTHWEST LOUISIANA

CITY           SKY/WX    TMP DP  RH WIND       PRES   REMARKS
LAKE CHARLES   CLEAR     41  38  89 CALM      30.25S
LAFAYETTE      CLEAR     41  39  93 CALM      30.26S
PATTERSON      CLEAR     46  34  61 NW5         N/A
SALT POINT       N/A     53  38  56 NW5       30.25R
NEW IBERIA     FAIR      41  37  86 CALM      30.27S
CHENAULT AIRPK CLEAR     41  39  93 CALM      30.25F

$$

LAZ027-028-260400-
CENTRAL LOUISIANA

CITY           SKY/WX    TMP DP  RH WIND       PRES   REMARKS
FORT POLK      CLEAR     40  38  93 SE1       30.23R
ALEXANDRIA INT CLEAR     39  34  82 SE5       30.23S
ALEXANDRIA     CLEAR     35  33  92 CALM      30.24S

$$

LAZ001-002-260400-
NORTHWEST LOUISIANA

CITY           SKY/WX    TMP DP  RH WIND       PRES   REMARKS
SHREVEPORT     PTCLDY    45  33  63 S5        30.18S
BARKSDALE AFB  CLEAR     43  29  58 SE5       30.19S
DTN SHREVEPORT CLEAR     48  29  47 SE3       30.19S

$$

LAZ014-016-260400-
NORTHEAST LOUISIANA

CITY           SKY/WX    TMP DP  RH WIND       PRES   REMARKS
MONROE         CLEAR     36  32  85 CALM      30.24S
TALLULAH       CLEAR     30  28  92 CALM      30.25S

$$




USA.gov is the U.S. government's official web portal to all federal, state and local government web resources and services.